This demonstration page uses our WeatherBlox Daily Observations layout. Learn more.

Left ArrowRight Arrow

Hourly Observations for May 16, 2015

Temp ( °F °C ) Dew Point ( °F °C ) Humidity (%) Winds ( mph kmh ) Pressure ( in mb ) Visibility ( mi km ) Precip ( " mm )
12:53 am 00:53 Mostly Cloudy 73 22.8 63 17.2 71 71 W 12 19 30.11 1020 10 16 0.00 0.03
1:53 am 01:53 Mostly Clear 68 20 64 17.8 87 87 Calm 30.10 1019 10 16 0.00 0.03
2:53 am 02:53 Clear 66 18.9 64 17.8 93 93 Calm 30.08 1019 10 16 0.00 0.00
3:53 am 03:53 Mostly Cloudy 66 18.9 63 17.2 90 90 Calm 30.08 1019 10 16 0.00 0.00
4:53 am 04:53 Mostly Cloudy 65 18.3 63 17.2 93 93 Calm 30.08 1019 8 13 0.00 0.00
5:53 am 05:53 Partly Cloudy 66 18.9 63 17.2 90 90 Calm 30.10 1019 9 14 0.00 0.00
6:53 am 06:53 Mostly Cloudy with Mist and Fog 65 18.3 63 17.2 93 93 Calm 30.11 1020 5 8 0.00 0.00
7:31 am 07:31 Cloudy with Mist and Fog 67 19.4 65 18.3 93 93 Calm 30.12 1020 6 10 0.00 0.00
7:48 am 07:48 Cloudy 70 21 64 18 83 83 Calm 30.09 1019 8 13 0.00 0.00
7:53 am 07:53 Cloudy 70 21.1 65 18.3 84 84 Calm 30.12 1020 9 14 0.00 0.00
8:53 am 08:53 Mostly Cloudy 71 21.7 65 18.3 81 81 S 5 7 30.13 1020 10 16 0.00 0.03
9:53 am 09:53 Mostly Cloudy 73 22.8 65 18.3 76 76 WSW 9 15 30.14 1021 10 16 0.00 0.00
10:53 am 10:53 Mostly Cloudy 74 23.3 65 18.3 74 74 SW 8 13 30.14 1021 10 16 0.00 0.03
11:53 am 11:53 Mostly Cloudy 77 25 65 18.3 66 66 WSW 10 17 30.13 1020 10 16 0.00 0.00
12:53 pm 12:53 Mostly Cloudy 78 25.6 65 18.3 64 64 WSW 8 13 30.12 1020 10 16 0.00 0.00
1:17 pm 13:17 Mostly Cloudy with Light Rain 76 24.4 67 19.4 74 74 SSW 5 7 30.09 1019 9 14 0.00 0.03
1:51 pm 13:51 Cloudy with Light Rain 73 23 70 21 89 89 VRB 3 6 30.12 1020 4 6 0.02 0.51
1:53 pm 13:53 Cloudy with Light Rain 73 22.8 69 20.6 87 87 Calm 30.13 1020 4 6 0.02 0.51
2:14 pm 14:14 Cloudy with Rain 73 22.8 70 21.1 90 90 Calm 30.12 1020 3 4 0.04 1.02
2:24 pm 14:24 Cloudy with Light Rain 73 22.8 70 21.1 90 90 Calm 30.09 1019 4 6 0.04 1.02
2:53 pm 14:53 Cloudy with Light Rain 73 22.8 69 20.6 87 87 S 6 9 30.12 1020 6 10 0.04 1.02
3:34 pm 15:34 Cloudy with Light Rain 72 22.2 69 20.6 91 91 VRB 3 6 30.09 1019 3 4 0.05 1.27
3:41 pm 15:41 Cloudy with Rain 72 22.2 70 21.1 94 94 S 5 7 30.09 1019 3 5 0.07 1.78
3:53 pm 15:53 Cloudy with Light Rain 72 22.2 70 21.1 94 94 SSW 9 15 30.11 1020 4 6 0.08 2.03
4:08 pm 16:08 Cloudy with Light Rain 71 21.7 69 20.6 94 94 SW 6 9 30.09 1019 6 10 0.01 0.25
4:28 pm 16:28 Cloudy with Light Rain 71 21.7 69 20.6 94 94 VRB 5 7 30.09 1019 6 10 0.01 0.25
4:53 pm 16:53 Cloudy with Light Rain 72 22.2 69 20.6 91 91 SW 7 11 30.10 1019 6 10 0.01 0.25
5:53 pm 17:53 Cloudy with Light Rain 72 22.2 68 20 87 87 Calm 30.10 1019 10 16 0.00 0.03
6:35 pm 18:35 Cloudy with Light Rain 72 22.2 68 20 87 87 Calm 30.09 1019 8 13 0.01 0.25
6:42 pm 18:42 Cloudy with Light Rain 71 21.7 68 20 90 90 SW 3 6 30.09 1019 7 11 0.01 0.25
6:53 pm 18:53 Cloudy with Light Rain 71 21.7 68 20 90 90 Calm 30.10 1019 4 6 0.02 0.51
7:18 pm 19:18 Cloudy 71 21.7 69 20.6 94 94 Calm 30.09 1019 8 13 0.00 0.03
7:53 pm 19:53 Mostly Cloudy 71 21.7 69 20.6 94 94 Calm 30.09 1019 10 16 0.00 0.03
8:53 pm 20:53 Mostly Clear 71 21.7 67 19.4 87 87 Calm 30.10 1019 10 16 0.00 0.00
9:53 pm 21:53 Mostly Cloudy with Light Rain 70 21.1 68 20 93 93 Calm 30.11 1020 10 16 0.00 0.03
10:53 pm 22:53 Mostly Cloudy with Light Rain 70 21.1 68 20 93 93 Calm 30.12 1020 10 16 0.01 0.25
11:53 pm 23:53 Mostly Cloudy 70 21.1 68 20 93 93 SSE 3 6 30.12 1020 10 16 0.00 0.03

Powered by AerisWeather